Weather History for Arlington, TX

Change the Weather History Date:

Saturday, March 29, 2014

  Actual Average (KRBD) Record (KRBD)
Temperature  
Mean Temperature 60 °F -  
Max Temperature 75 °F 68 °F 82 °F (1997)
Min Temperature 46 °F 50 °F 37 °F (2009)
Degree Days  
Heating Degree Days 6    
Growing Degree Days 10 (Base 50)    
Moisture  
Dew Point 35 °F    
Average Humidity 47    
Maximum Humidity 71    
Minimum Humidity 16    
Precipitation  
Precipitation 0.00 in - - ()
Sea Level Pressure  
Sea Level Pressure 30.19 in    
Wind  
Wind Speed 9 mph (NNW)    
Max Wind Speed 13 mph    
Max Gust Speed 18 mph    
Visibility 10 miles    
Events      
Averages and records for this station are not official NWS values.
T = Trace of Precipitation, MM = Missing Value Source: NWS Daily Summary

Daily Weather History Graph

Daily Weather History Graph

Search for Another Location

Airport:

Trip Planner

Search our weather history database for the weather conditions in past years. The results will help you decide how hot, cold, wet, or windy it might be!

Date:

Astronomy

Mar. 29, 2014 Rise Set
Actual Time 7:20 AM CDT 7:46 PM CDT
Civil Twilight 6:55 AM CDT 8:11 PM CDT
Nautical Twilight 6:26 AM CDT 8:40 PM CDT
Astronomical Twilight 5:57 AM CDT 9:09 PM CDT
Moon 6:26 AM CDT (3/29) 6:54 PM CDT (3/29)
Length of Visible Light 13h 15m
Length of Day
12h 26m
Waning Crescent, 2% of the Moon is Illuminated
Mar 29
Waning Crescent
Mar 30
New
Apr 7
First Quarter
Apr 15
Full
Apr 22
Last Quarter

Hourly Weather History & Observations

Time (CDT) Temp. Dew Point Humidity Pressure Visibility Wind Dir Wind Speed Gust Speed Precip Events Conditions
12:53 AM 54.0 °F 41.0 °F 62% 30.07 in 10.0 mi North 10.4 mph - N/A   Clear
1:53 AM 53.1 °F 39.9 °F 61% 30.09 in 10.0 mi North 10.4 mph - N/A   Clear
2:53 AM 51.1 °F 39.9 °F 66% 30.11 in 10.0 mi NNW 10.4 mph - N/A   Clear
3:53 AM 50.0 °F 39.9 °F 68% 30.13 in 10.0 mi NNW 9.2 mph - N/A   Clear
4:53 AM 48.0 °F 39.0 °F 71% 30.14 in 10.0 mi WNW 6.9 mph - N/A   Clear
5:53 AM 48.0 °F 39.0 °F 71% 30.16 in 10.0 mi NNW 11.5 mph - N/A   Clear
6:53 AM 46.9 °F 37.9 °F 71% 30.18 in 10.0 mi NW 6.9 mph - N/A   Clear
7:53 AM 46.9 °F 37.9 °F 71% 30.21 in 10.0 mi NW 9.2 mph - N/A   Clear
8:53 AM 51.1 °F 39.0 °F 63% 30.23 in 10.0 mi NNW 11.5 mph - N/A   Clear
9:53 AM 54.0 °F 39.0 °F 57% 30.27 in 10.0 mi NW 8.1 mph - N/A   Clear
10:53 AM 57.9 °F 39.9 °F 51% 30.29 in 10.0 mi WNW 8.1 mph - N/A   Clear
11:53 AM 64.0 °F 39.0 °F 40% 30.29 in 10.0 mi NNW 8.1 mph - N/A   Clear
12:53 PM 68.0 °F 37.9 °F 33% 30.28 in 10.0 mi NNW 8.1 mph - N/A   Clear
1:53 PM 72.0 °F 36.0 °F 27% 30.26 in 10.0 mi North 12.7 mph 18.4 mph N/A   Clear
2:53 PM 73.9 °F 33.1 °F 22% 30.23 in 10.0 mi North 12.7 mph - N/A   Clear
3:53 PM 73.9 °F 28.9 °F 19% 30.20 in 10.0 mi NW 6.9 mph - N/A   Clear
4:53 PM 73.9 °F 25.0 °F 16% 30.18 in 10.0 mi North 8.1 mph - N/A   Clear
5:53 PM 73.0 °F 27.0 °F 18% 30.17 in 10.0 mi ENE 5.8 mph - N/A   Clear
6:53 PM 72.0 °F 25.0 °F 17% 30.18 in 10.0 mi Variable 5.8 mph - N/A   Clear
7:53 PM 69.1 °F 26.1 °F 20% 30.19 in 10.0 mi ENE 3.5 mph - N/A   Clear
8:53 PM 55.9 °F 30.0 °F 37% 30.19 in 10.0 mi ENE 3.5 mph - N/A   Clear
9:53 PM 53.1 °F 32.0 °F 45% 30.20 in 10.0 mi ESE 3.5 mph - N/A   Clear
10:53 PM 50.0 °F 33.1 °F 52% 30.21 in 10.0 mi Calm Calm - N/A   Clear
11:53 PM 46.0 °F 35.1 °F 66% 30.21 in 10.0 mi Calm Calm - N/A   Clear